Flint, MI

9:47 PM EST on November 22, 2017 (GMT -0500)
Bishop International

Weather History for KFNT - July, 2012

Change the Weather History Date:

Friday, July 20, 2012

  Actual Average Record
Temperature  
Mean Temperature 70 °F 71 °F  
Max Temperature 82 °F 82 °F 102 °F (1930)
Min Temperature 57 °F 59 °F 41 °F (1965)
Degree Days  
Heating Degree Days 0 0  
Month to date heating degree days 0 10  
Since 1 June heating degree days 48 76  
Since 1 July heating degree days 0 10  
Cooling Degree Days 5 6  
Month to date cooling degree days 254 120  
Year to date cooling degree days 524 264  
Since 1 June cooling degree days 436 232  
Growing Degree Days 23 (Base 50)    
Moisture  
Dew Point 58 °F    
Average Humidity 63    
Maximum Humidity 87    
Minimum Humidity 39    
Precipitation  
Precipitation 0.00 in 0.11 in 2.28 in (1952)
Month to date precipitation 1.81 2.04  
Year to date precipitation 16.82 16.10  
Snow  
Snow 0.00 in 0.00 in 0.00 in ()
Month to date snowfall 0.0 0.0  
Since 1 June snowfall 0.0 0.0  
Since 1 July snowfall 0.0 0.0  
Snow Depth 0.00 in    
Sea Level Pressure  
Sea Level Pressure 30.05 in    
Wind  
Wind Speed 9 mph (NE)    
Max Wind Speed 17 mph    
Max Gust Speed 21 mph    
Visibility 10 miles    
Events      
T = Trace of Precipitation, MM = Missing Value Source: NWS Daily Summary

Daily Weather History Graph

Daily Weather History Graph

Search for Another Location

Airport or City:

Trip Planner

Search our weather history database for the weather conditions in past years. The results will help you decide how hot, cold, wet, or windy it might be!

Date:

Astronomy

Jul. 20, 2012 Rise Set
Actual Time 6:14 AM EDT 9:07 PM EDT
Civil Twilight 5:40 AM EDT 9:41 PM EDT
Nautical Twilight 4:58 AM EDT 10:23 PM EDT
Astronomical Twilight 4:08 AM EDT 11:12 PM EDT
Moon 7:54 AM EDT (7/20) 9:42 PM EDT (7/20)
Length of Visible Light 16h 00m
Length of Day
14h 53m
New Moon, 2% of the Moon is Illuminated
Jul 20
New Moon
Jul 26
First Quarter
Aug 1
Full
Aug 9
Last Quarter
Aug 17
New

Hourly Weather History & Observations

Time (EDT) Temp. Heat Index Dew Point Humidity Pressure Visibility Wind Dir Wind Speed Gust Speed Precip Events Conditions
12:53 AM 66.9 °F - 61.0 °F 81% 30.02 in 10.0 mi East 8.1 mph - N/A   Overcast
1:53 AM 66.0 °F - 60.1 °F 81% 30.02 in 10.0 mi ENE 5.8 mph - N/A   Overcast
2:53 AM 66.0 °F - 61.0 °F 84% 30.01 in 10.0 mi NE 8.1 mph - N/A   Mostly Cloudy
3:53 AM 64.9 °F - 60.1 °F 84% 30.01 in 10.0 mi NNE 6.9 mph - N/A   Clear
4:53 AM 64.9 °F - 60.1 °F 84% 30.03 in 10.0 mi North 4.6 mph - N/A   Partly Cloudy
5:53 AM 64.9 °F - 60.1 °F 84% 30.04 in 10.0 mi NE 8.1 mph - N/A   Scattered Clouds
6:53 AM 64.9 °F - 60.1 °F 84% 30.04 in 10.0 mi NE 5.8 mph - N/A   Partly Cloudy
7:53 AM 64.9 °F - 59.0 °F 81% 30.05 in 10.0 mi ENE 8.1 mph - N/A   Clear
8:53 AM 69.1 °F - 59.0 °F 70% 30.07 in 10.0 mi NE 5.8 mph - N/A   Partly Cloudy
9:53 AM 71.1 °F - 59.0 °F 66% 30.08 in 10.0 mi ENE 8.1 mph - N/A   Scattered Clouds
10:53 AM 73.9 °F - 59.0 °F 59% 30.08 in 10.0 mi ENE 10.4 mph - N/A   Partly Cloudy
11:53 AM 75.9 °F - 57.0 °F 52% 30.09 in 10.0 mi East 12.7 mph - N/A   Mostly Cloudy
12:53 PM 77.0 °F - 55.0 °F 47% 30.09 in 10.0 mi NE 15.0 mph 19.6 mph N/A   Mostly Cloudy
1:53 PM 78.1 °F - 55.0 °F 45% 30.07 in 10.0 mi ENE 11.5 mph 19.6 mph N/A   Partly Cloudy
2:53 PM 80.1 °F 80.0 °F 54.0 °F 40% 30.07 in 10.0 mi North 6.9 mph - N/A   Mostly Cloudy
3:53 PM 82.0 °F 81.4 °F 55.0 °F 39% 30.06 in 10.0 mi North 9.2 mph - N/A   Scattered Clouds
4:53 PM 79.0 °F - 54.0 °F 42% 30.05 in 10.0 mi NNE 9.2 mph - N/A   Scattered Clouds
5:53 PM 77.0 °F - 57.0 °F 50% 30.05 in 10.0 mi North - - N/A   Mostly Cloudy
6:53 PM 79.0 °F - 57.0 °F 47% 30.05 in 10.0 mi North - - N/A   Partly Cloudy
7:53 PM 75.9 °F - 57.0 °F 52% 30.05 in 10.0 mi North - - N/A   Clear
8:53 PM 73.0 °F - 57.0 °F 57% 30.06 in 10.0 mi North - - N/A   Clear
9:53 PM 71.1 °F - 57.0 °F 61% 30.07 in 10.0 mi North - - N/A   Clear
10:53 PM 66.0 °F - 57.0 °F 73% 30.08 in 10.0 mi North - - N/A   Clear
11:53 PM 63.0 °F - 57.0 °F 81% 30.08 in 10.0 mi North - - N/A   Clear